| time (UTC) | temp F | wind direction | speed knots | gust knots | rain 1hr in | rain 24hr in | rain mn in | humidity % | barometer mb |
| 20260510162209 | 74 | 280 | 1.7 | 9.6 | 0.00 | 0.00 | 0.00 | 41 | 1016.8 |
| 20260510161704 | 73 | 242 | 1.7 | 7.8 | 0.00 | 0.00 | 0.00 | 43 | 1017.0 |
| 20260510161201 | 73 | 233 | 7.8 | 9.6 | 0.00 | 0.00 | 0.00 | 41 | 1017.1 |
| 20260510160658 | 73 | 233 | 5.2 | 14.8 | 0.00 | 0.00 | 0.00 | 42 | 1017.1 |
| 20260510160153 | 73 | 194 | 3.5 | 7.8 | 0.00 | 0.00 | 0.00 | 42 | 1017.0 |
| 20260510155649 | 73 | 175 | 9.6 | 11.3 | 0.00 | 0.00 | 0.00 | 42 | 1017.0 |
| 20260510155145 | 72 | 204 | 2.6 | 11.3 | 0.00 | 0.00 | 0.00 | 46 | 1017.3 |
| 20260510154641 | 73 | 204 | 7.8 | 8.7 | 0.00 | 0.00 | 0.00 | 45 | 1017.3 |
| 20260510154137 | 73 | 243 | 6.1 | 9.6 | 0.00 | 0.00 | 0.00 | 46 | 1017.2 |
| 20260510153632 | 72 | 103 | 5.2 | 7.0 | 0.00 | 0.00 | 0.00 | 45 | 1017.5 |
| 20260510153129 | 72 | 246 | 1.7 | 9.6 | 0.00 | 0.00 | 0.00 | 48 | 1017.4 |
| 20260510152626 | 72 | 176 | 2.6 | 5.2 | 0.00 | 0.00 | 0.00 | 45 | 1017.2 |
| 20260510152122 | 72 | 192 | 5.2 | 8.7 | 0.00 | 0.00 | 0.00 | 50 | 1017.4 |
| 20260510151619 | 71 | 145 | 7.8 | 11.3 | 0.00 | 0.00 | 0.00 | 45 | 1017.2 |
| 20260510151117 | 71 | 168 | 0.9 | 3.5 | 0.00 | 0.00 | 0.00 | 50 | 1017.3 |
| 20260510150617 | 70 | 153 | 3.5 | 7.8 | 0.00 | 0.00 | 0.00 | 53 | 1017.4 |
| 20260510150113 | 69 | 213 | 2.6 | 6.1 | 0.00 | 0.00 | 0.00 | 51 | 1017.0 |
| 20260510145609 | 69 | 239 | 2.6 | 6.1 | 0.00 | 0.00 | 0.00 | 53 | 1017.2 |
| 20260510145106 | 70 | 114 | 4.3 | 7.8 | 0.00 | 0.00 | 0.00 | 50 | 1017.1 |
| 20260510144602 | 70 | 243 | 3.5 | 6.1 | 0.00 | 0.00 | 0.00 | 51 | 1017.0 |
| 20260510144058 | 69 | 139 | 3.5 | 5.2 | 0.00 | 0.00 | 0.00 | 52 | 1017.0 |
| 20260510143554 | 69 | 262 | 7.0 | 12.2 | 0.00 | 0.00 | 0.00 | 52 | 1017.3 |
| 20260510143050 | 68 | 252 | 7.0 | 9.6 | 0.00 | 0.00 | 0.00 | 57 | 1017.1 |
| 20260510142547 | 68 | 82 | 2.6 | 2.6 | 0.00 | 0.00 | 0.00 | 58 | 1017.4 |
| 20260510142044 | 68 | 232 | 0.9 | 11.3 | 0.00 | 0.00 | 0.00 | 58 | 1017.3 |
| 20260510141541 | 68 | 196 | 3.5 | 7.0 | 0.00 | 0.00 | 0.00 | 59 | 1017.4 |
| 20260510141039 | 68 | 144 | 3.5 | 11.3 | 0.00 | 0.00 | 0.00 | 57 | 1017.4 |
| 20260510140535 | 68 | 155 | 0.9 | 7.0 | 0.00 | 0.00 | 0.00 | 60 | 1017.2 |
| 20260510140034 | 66 | 79 | 1.7 | 3.5 | 0.00 | 0.00 | 0.00 | 60 | 1017.3 |
| 20260510135530 | 62 | 148 | 8.7 | 13.0 | 0.00 | 0.00 | 0.00 | 67 | 1017.2 |
| 20260510135026 | 61 | 70 | 1.7 | 3.5 | 0.00 | 0.00 | 0.00 | 78 | 1017.4 |
| 20260510134524 | 60 | 32 | 0.9 | 2.6 | 0.00 | 0.00 | 0.00 | 79 | 1017.5 |
| 20260510134021 | 58 | 275 | 0.0 | 1.7 | 0.00 | 0.00 | 0.00 | 80 | 1017.6 |
| 20260510133516 | 58 | 322 | 0.9 | 0.9 | 0.00 | 0.00 | 0.00 | 82 | 1017.6 |
| 20260510133013 | 57 | 248 | 0.0 | 2.6 | 0.00 | 0.00 | 0.00 | 80 | 1017.3 |
| 20260510132510 | 57 | 62 | 0.0 | 0.0 | 0.00 | 0.00 | 0.00 | 83 | 1017.2 |
| 20260510132006 | 56 | 44 | 0.0 | 0.9 | 0.00 | 0.00 | 0.00 | 84 | 1017.3 |
| 20260510131504 | 56 | 192 | 1.7 | 3.5 | 0.00 | 0.00 | 0.00 | 82 | 1017.5 |
| 20260510131001 | 56 | 98 | 0.0 | 1.7 | 0.00 | 0.00 | 0.00 | 84 | 1017.2 |
| 20260510130457 | 56 | 55 | 1.7 | 2.6 | 0.00 | 0.00 | 0.00 | 84 | 1017.3 |
| 20260510125955 | 56 | 56 | 0.0 | 1.7 | 0.00 | 0.00 | 0.00 | 83 | 1017.3 |
| 20260510125451 | 56 | 80 | 0.9 | 0.9 | 0.00 | 0.00 | 0.00 | 83 | 1017.2 |
| 20260510124947 | 55 | 52 | 0.0 | 1.7 | 0.00 | 0.00 | 0.00 | 83 | 1017.3 |
| 20260510124444 | 55 | 95 | 0.0 | 0.9 | 0.00 | 0.00 | 0.00 | 84 | 1017.2 |
| 20260510123941 | 55 | 27 | 0.0 | 0.9 | 0.00 | 0.00 | 0.00 | 84 | 1017.4 |
| 20260510123436 | 54 | 68 | 2.6 | 2.6 | 0.00 | 0.00 | 0.00 | 84 | 1017.2 |
| 20260510122932 | 54 | 30 | 0.0 | 0.9 | 0.00 | 0.00 | 0.00 | 85 | 1017.3 |
| 20260510122432 | 53 | 22 | 0.0 | 0.0 | 0.00 | 0.00 | 0.00 | 85 | 1017.0 |
| 20260510121929 | 53 | 43 | 1.7 | 1.7 | 0.00 | 0.00 | 0.00 | 84 | 1017.1 |
| 20260510121427 | 53 | 33 | 0.0 | 0.0 | 0.00 | 0.00 | 0.00 | 85 | 1017.1 |
| 20260510120924 | 52 | 57 | 0.9 | 1.7 | 0.00 | 0.00 | 0.00 | 85 | 1016.8 |
| 20260510120421 | 52 | 45 | 0.9 | 0.9 | 0.00 | 0.00 | 0.00 | 86 | 1017.0 |
| 20260510115917 | 52 | 64 | 0.0 | 1.7 | 0.00 | 0.00 | 0.00 | 86 | 1016.8 |
| 20260510115414 | 51 | 66 | 0.0 | 0.0 | 0.00 | 0.00 | 0.00 | 85 | 1017.1 |
| 20260510114910 | 51 | 265 | 0.0 | 0.9 | 0.00 | 0.00 | 0.00 | 86 | 1017.2 |
| 20260510114407 | 51 | 83 | 0.0 | 1.7 | 0.00 | 0.00 | 0.00 | 87 | 1016.9 |
| 20260510113902 | 50 | 163 | 1.7 | 5.2 | 0.00 | 0.00 | 0.00 | 87 | 1017.0 |
| 20260510113358 | 50 | 21 | 0.0 | 1.7 | 0.00 | 0.00 | 0.00 | 89 | 1017.1 |
| 20260510112856 | 49 | 306 | 0.0 | 0.9 | 0.00 | 0.00 | 0.00 | 89 | 1017.0 |
| 20260510112352 | 49 | 130 | 0.0 | 2.6 | 0.00 | 0.00 | 0.00 | 88 | 1017.1 |
| 20260510111848 | 49 | 243 | 0.9 | 2.6 | 0.00 | 0.00 | 0.00 | 89 | 1017.1 |
| 20260510111346 | 48 | 173 | 2.6 | 5.2 | 0.00 | 0.00 | 0.00 | 88 | 1016.9 |
| 20260510110846 | 48 | 216 | 1.7 | 2.6 | 0.00 | 0.00 | 0.00 | 90 | 1016.9 |
| 20260510110343 | 47 | 260 | 2.6 | 2.6 | 0.00 | 0.00 | 0.00 | 91 | 1016.7 |
| 20260510105839 | 47 | 279 | 0.0 | 0.0 | 0.00 | 0.00 | 0.00 | 91 | 1016.5 |
| 20260510105339 | 47 | 102 | 0.9 | 1.7 | 0.00 | 0.00 | 0.00 | 92 | 1016.5 |
| 20260510104835 | 47 | 87 | 0.9 | 0.9 | 0.00 | 0.00 | 0.00 | 92 | 1016.4 |
| 20260510104332 | 47 | 96 | 1.7 | 1.7 | 0.00 | 0.00 | 0.00 | 92 | 1016.2 |
| 20260510103828 | 47 | 330 | 0.9 | 0.9 | 0.00 | 0.00 | 0.00 | 91 | 1016.3 |
| 20260510103325 | 47 | 114 | 0.0 | 1.7 | 0.00 | 0.00 | 0.00 | 91 | 1016.2 |
| 20260510102821 | 46 | 358 | 0.0 | 2.6 | 0.00 | 0.00 | 0.00 | 92 | 1016.2 |
| 20260510102317 | 46 | 314 | 2.6 | 2.6 | 0.00 | 0.00 | 0.00 | 92 | 1015.9 |
| 20260510101814 | 46 | 233 | 0.0 | 0.9 | 0.00 | 0.00 | 0.00 | 91 | 1015.9 |
| 20260510101312 | 46 | 269 | 0.9 | 1.7 | 0.00 | 0.00 | 0.00 | 92 | 1015.8 |
| 20260510100808 | 47 | 165 | 0.0 | 0.0 | 0.00 | 0.00 | 0.00 | 91 | 1015.7 |
| 20260510100306 | 46 | 106 | 0.9 | 2.6 | 0.00 | 0.00 | 0.00 | 92 | 1015.9 |
| 20260510095801 | 47 | 45 | 0.9 | 1.7 | 0.00 | 0.00 | 0.00 | 92 | 1015.8 |
| 20260510095257 | 46 | 50 | 0.0 | 1.7 | 0.00 | 0.00 | 0.00 | 92 | 1015.7 |
| 20260510094756 | 46 | 46 | 0.0 | 0.9 | 0.00 | 0.00 | 0.00 | 93 | 1015.6 |
| 20260510094251 | 46 | 85 | 0.0 | 1.7 | 0.00 | 0.00 | 0.00 | 94 | 1015.6 |
| 20260510093747 | 46 | 58 | 0.0 | 0.9 | 0.00 | 0.00 | 0.00 | 93 | 1015.6 |
| 20260510093245 | 46 | 225 | 1.7 | 1.7 | 0.00 | 0.00 | 0.00 | 93 | 1015.6 |
| 20260510092741 | 46 | 201 | 0.0 | 0.9 | 0.00 | 0.00 | 0.00 | 93 | 1015.5 |
| 20260510092237 | 46 | 46 | 1.7 | 1.7 | 0.00 | 0.00 | 0.00 | 92 | 1015.3 |
| 20260510091733 | 47 | 62 | 1.7 | 2.6 | 0.00 | 0.00 | 0.00 | 92 | 1015.3 |
| 20260510091230 | 47 | 49 | 0.0 | 1.7 | 0.00 | 0.00 | 0.00 | 92 | 1015.3 |
| 20260510090726 | 47 | 179 | 0.0 | 3.5 | 0.00 | 0.00 | 0.00 | 92 | 1015.3 |
| 20260510090224 | 46 | 109 | 2.6 | 2.6 | 0.00 | 0.00 | 0.00 | 92 | 1015.2 |
| 20260510085718 | 46 | 269 | 0.0 | 1.7 | 0.00 | 0.00 | 0.00 | 92 | 1015.2 |
| 20260510085213 | 46 | 98 | 1.7 | 2.6 | 0.00 | 0.00 | 0.00 | 92 | 1015.3 |
| 20260510084709 | 46 | 164 | 0.0 | 3.5 | 0.00 | 0.00 | 0.00 | 93 | 1015.3 |
| 20260510084207 | 46 | 199 | 0.0 | 3.5 | 0.00 | 0.00 | 0.00 | 93 | 1015.5 |
| 20260510083703 | 46 | 252 | 0.9 | 0.9 | 0.00 | 0.00 | 0.00 | 93 | 1015.4 |
| 20260510083201 | 46 | 109 | 2.6 | 2.6 | 0.00 | 0.00 | 0.00 | 92 | 1015.0 |
| 20260510082656 | 46 | 59 | 0.9 | 0.9 | 0.00 | 0.00 | 0.00 | 93 | 1015.2 |
| 20260510082152 | 46 | 40 | 2.6 | 2.6 | 0.00 | 0.00 | 0.00 | 93 | 1015.2 |
| 20260510081647 | 46 | 15 | 0.9 | 0.9 | 0.00 | 0.00 | 0.00 | 93 | 1015.1 |
| 20260510081143 | 46 | 81 | 1.7 | 1.7 | 0.00 | 0.00 | 0.00 | 93 | 1015.2 |
| 20260510080642 | 46 | 215 | 0.0 | 1.7 | 0.00 | 0.00 | 0.00 | 93 | 1015.1 |
| 20260510080140 | 46 | 98 | 0.9 | 1.7 | 0.00 | 0.00 | 0.00 | 92 | 1015.0 |
| 20260510075636 | 46 | 68 | 0.9 | 1.7 | 0.00 | 0.00 | 0.00 | 91 | 1015.2 |
| 20260510075134 | 46 | 128 | 0.0 | 0.9 | 0.00 | 0.00 | 0.00 | 91 | 1015.1 |
| 20260510074630 | 47 | 119 | 0.0 | 1.7 | 0.00 | 0.00 | 0.00 | 91 | 1014.8 |
| 20260510074126 | 47 | 355 | 0.0 | 0.9 | 0.00 | 0.00 | 0.00 | 91 | 1014.7 |
| 20260510073622 | 47 | 151 | 0.0 | 1.7 | 0.00 | 0.00 | 0.00 | 92 | 1015.0 |
| 20260510073119 | 46 | 187 | 0.9 | 3.5 | 0.00 | 0.00 | 0.00 | 92 | 1014.8 |
| 20260510072616 | 45 | 16 | 1.7 | 3.5 | 0.00 | 0.00 | 0.00 | 93 | 1015.0 |
| 20260510072112 | 45 | 350 | 0.0 | 1.7 | 0.00 | 0.00 | 0.00 | 94 | 1015.0 |
| 20260510071608 | 45 | 234 | 0.0 | 1.7 | 0.00 | 0.00 | 0.00 | 93 | 1015.0 |
| 20260510071107 | 46 | 42 | 0.0 | 0.9 | 0.00 | 0.00 | 0.00 | 92 | 1015.0 |
| 20260510070603 | 46 | 113 | 0.0 | 0.9 | 0.00 | 0.00 | 0.00 | 91 | 1014.8 |
| 20260510070100 | 46 | 54 | 1.7 | 2.6 | 0.00 | 0.00 | 0.00 | 92 | 1014.8 |
| 20260510065556 | 47 | 218 | 0.0 | 0.0 | 0.00 | 0.00 | 0.00 | 90 | 1014.7 |
| 20260510065052 | 47 | 49 | 1.7 | 2.6 | 0.00 | 0.00 | 0.00 | 90 | 1014.8 |
| 20260510064549 | 46 | 56 | 0.0 | 0.9 | 0.00 | 0.00 | 0.00 | 92 | 1014.8 |
| 20260510064045 | 46 | 55 | 1.7 | 1.7 | 0.00 | 0.00 | 0.00 | 91 | 1014.8 |
| 20260510063543 | 46 | 312 | 0.9 | 2.6 | 0.00 | 0.00 | 0.00 | 91 | 1014.7 |
| 20260510063040 | 46 | 38 | 0.9 | 0.9 | 0.00 | 0.00 | 0.00 | 90 | 1014.8 |
| 20260510062535 | 46 | 53 | 1.7 | 2.6 | 0.00 | 0.00 | 0.00 | 91 | 1015.0 |
| 20260510062031 | 46 | 55 | 1.7 | 2.6 | 0.00 | 0.00 | 0.00 | 91 | 1015.0 |
| 20260510061528 | 47 | 281 | 0.9 | 1.7 | 0.00 | 0.00 | 0.00 | 90 | 1015.1 |
| 20260510061024 | 46 | 72 | 0.0 | 1.7 | 0.00 | 0.00 | 0.00 | 90 | 1015.0 |
| 20260510060521 | 47 | 44 | 0.0 | 0.0 | 0.00 | 0.00 | 0.00 | 89 | 1014.8 |
| 20260510060017 | 47 | 130 | 0.0 | 1.7 | 0.00 | 0.00 | 0.00 | 89 | 1014.7 |
| 20260510055513 | 46 | 76 | 0.0 | 0.9 | 0.00 | 0.00 | 0.00 | 91 | 1014.8 |
| 20260510055011 | 46 | 79 | 2.6 | 2.6 | 0.00 | 0.00 | 0.00 | 91 | 1014.8 |
| 20260510054507 | 46 | 97 | 2.6 | 2.6 | 0.00 | 0.00 | 0.00 | 91 | 1015.1 |
| 20260510054002 | 46 | 216 | 0.0 | 0.9 | 0.00 | 0.00 | 0.00 | 90 | 1015.1 |
| 20260510053457 | 47 | 132 | 0.0 | 1.7 | 0.00 | 0.00 | 0.00 | 90 | 1015.3 |
| 20260510052953 | 46 | 250 | 0.9 | 2.6 | 0.00 | 0.00 | 0.00 | 90 | 1015.3 |
| 20260510052450 | 46 | 44 | 0.0 | 1.7 | 0.00 | 0.00 | 0.00 | 91 | 1015.2 |
| 20260510051946 | 45 | 49 | 0.0 | 0.9 | 0.00 | 0.00 | 0.00 | 92 | 1015.5 |
| 20260510051442 | 46 | 96 | 0.0 | 0.0 | 0.00 | 0.00 | 0.00 | 91 | 1015.4 |
| 20260510050938 | 46 | 96 | 0.0 | 0.9 | 0.00 | 0.00 | 0.00 | 91 | 1015.5 |
| 20260510050435 | 45 | 62 | 0.0 | 0.0 | 0.00 | 0.00 | 0.00 | 91 | 1015.6 |
| 20260510045933 | 46 | 62 | 0.0 | 0.0 | 0.00 | 0.00 | 0.00 | 91 | 1015.6 |
| 20260510045430 | 46 | 62 | 0.0 | 0.0 | 0.00 | 0.00 | 0.00 | 91 | 1015.5 |
| 20260510044926 | 46 | 60 | 0.0 | 0.0 | 0.00 | 0.00 | 0.00 | 91 | 1015.6 |
| 20260510044423 | 46 | 70 | 0.0 | 0.0 | 0.00 | 0.00 | 0.00 | 91 | 1015.4 |
| 20260510043920 | 46 | 96 | 0.0 | 0.0 | 0.00 | 0.00 | 0.00 | 90 | 1015.4 |
| 20260510043416 | 46 | 95 | 0.0 | 0.0 | 0.00 | 0.00 | 0.00 | 90 | 1015.3 |
| 20260510042914 | 46 | 119 | 0.0 | 0.0 | 0.00 | 0.00 | 0.00 | 89 | 1015.2 |
| 20260510042410 | 46 | 115 | 0.0 | 0.0 | 0.00 | 0.00 | 0.00 | 89 | 1015.2 |
| 20260510041906 | 46 | 84 | 0.0 | 0.0 | 0.00 | 0.00 | 0.00 | 90 | 1015.0 |
| 20260510041403 | 47 | 83 | 0.0 | 0.0 | 0.00 | 0.00 | 0.00 | 89 | 1014.8 |
| 20260510040901 | 47 | 82 | 0.0 | 0.9 | 0.00 | 0.00 | 0.00 | 88 | 1014.8 |
| 20260510040358 | 46 | 125 | 0.0 | 0.0 | 0.00 | 0.00 | 0.00 | 90 | 1015.0 |
| 20260510035853 | 46 | 103 | 0.0 | 0.0 | 0.00 | 0.00 | 0.00 | 90 | 1014.7 |
| 20260510035349 | 46 | 103 | 0.9 | 0.9 | 0.00 | 0.00 | 0.00 | 90 | 1015.3 |
| 20260510034844 | 46 | 104 | 0.0 | 0.0 | 0.00 | 0.00 | 0.00 | 89 | 1015.2 |
| 20260510034343 | 46 | 104 | 0.0 | 0.0 | 0.00 | 0.00 | 0.00 | 88 | 1015.1 |
| 20260510033839 | 47 | 114 | 0.0 | 0.0 | 0.00 | 0.00 | 0.00 | 88 | 1015.1 |
| 20260510033336 | 47 | 120 | 0.0 | 0.0 | 0.00 | 0.00 | 0.00 | 87 | 1015.1 |
| 20260510032832 | 47 | 123 | 0.9 | 0.9 | 0.00 | 0.00 | 0.00 | 87 | 1015.0 |
| 20260510032329 | 47 | 121 | 0.0 | 0.0 | 0.00 | 0.00 | 0.00 | 87 | 1014.8 |
| 20260510031825 | 48 | 129 | 0.0 | 0.0 | 0.00 | 0.00 | 0.00 | 87 | 1015.0 |
| 20260510031320 | 47 | 169 | 0.0 | 0.0 | 0.00 | 0.00 | 0.00 | 87 | 1015.1 |
| 20260510030815 | 48 | 87 | 0.0 | 0.9 | 0.00 | 0.00 | 0.00 | 86 | 1014.8 |
| 20260510030311 | 47 | 86 | 0.0 | 0.0 | 0.00 | 0.00 | 0.00 | 88 | 1014.8 |
| 20260510025809 | 47 | 131 | 0.0 | 0.0 | 0.00 | 0.00 | 0.00 | 87 | 1014.8 |
| 20260510025306 | 47 | 117 | 0.0 | 0.0 | 0.00 | 0.00 | 0.00 | 87 | 1014.8 |
| 20260510024803 | 48 | 145 | 0.0 | 0.0 | 0.00 | 0.00 | 0.00 | 86 | 1015.0 |
| 20260510024300 | 48 | 158 | 0.0 | 0.0 | 0.00 | 0.00 | 0.00 | 86 | 1015.0 |
| 20260510023755 | 48 | 81 | 0.0 | 0.0 | 0.00 | 0.00 | 0.00 | 85 | 1014.6 |
| 20260510023247 | 49 | 72 | 0.0 | 0.0 | 0.00 | 0.00 | 0.00 | 84 | 1014.7 |
| 20260510022744 | 49 | 108 | 0.0 | 1.7 | 0.00 | 0.00 | 0.00 | 84 | 1014.7 |
| 20260510022243 | 49 | 223 | 0.9 | 1.7 | 0.00 | 0.00 | 0.00 | 84 | 1014.6 |
| 20260510021742 | 49 | 131 | 0.0 | 0.0 | 0.00 | 0.00 | 0.00 | 83 | 1014.6 |
| 20260510021241 | 48 | 109 | 0.0 | 0.9 | 0.00 | 0.00 | 0.00 | 85 | 1014.6 |
| 20260510020737 | 49 | 81 | 0.0 | 0.0 | 0.00 | 0.00 | 0.00 | 85 | 1014.3 |
| 20260510020236 | 49 | 175 | 0.0 | 0.0 | 0.00 | 0.00 | 0.00 | 83 | 1014.3 |
| 20260510015733 | 49 | 106 | 0.0 | 0.0 | 0.00 | 0.00 | 0.00 | 83 | 1014.1 |
| 20260510015229 | 50 | 261 | 0.9 | 0.9 | 0.00 | 0.00 | 0.00 | 81 | 1014.2 |
| 20260510014724 | 50 | 95 | 0.0 | 0.0 | 0.00 | 0.00 | 0.00 | 82 | 1014.1 |
| 20260510014222 | 51 | 106 | 0.0 | 0.0 | 0.00 | 0.00 | 0.00 | 80 | 1013.9 |
| 20260510013717 | 49 | 116 | 0.0 | 0.0 | 0.00 | 0.00 | 0.00 | 83 | 1014.0 |
| 20260510013214 | 50 | 82 | 0.0 | 0.0 | 0.00 | 0.00 | 0.00 | 81 | 1013.7 |
| 20260510012713 | 51 | 92 | 0.0 | 0.0 | 0.00 | 0.00 | 0.00 | 80 | 1013.8 |
| 20260510012209 | 51 | 178 | 0.0 | 0.0 | 0.00 | 0.00 | 0.00 | 79 | 1013.6 |
| 20260510011704 | 52 | 112 | 0.0 | 0.0 | 0.00 | 0.00 | 0.00 | 78 | 1013.4 |
| 20260510011159 | 52 | 119 | 0.0 | 0.0 | 0.00 | 0.00 | 0.00 | 77 | 1013.5 |
| 20260510010656 | 52 | 58 | 0.0 | 0.0 | 0.00 | 0.00 | 0.00 | 77 | 1013.4 |
| 20260510010148 | 53 | 110 | 0.0 | 0.0 | 0.00 | 0.00 | 0.00 | 76 | 1013.4 |
| 20260510005644 | 53 | 271 | 0.0 | 0.0 | 0.00 | 0.00 | 0.00 | 76 | 1013.4 |
| 20260510005141 | 53 | 122 | 0.0 | 0.0 | 0.00 | 0.00 | 0.00 | 76 | 1013.2 |
| 20260510004639 | 53 | 125 | 0.0 | 0.0 | 0.00 | 0.00 | 0.00 | 75 | 1013.0 |
| 20260510004137 | 55 | 117 | 0.0 | 0.9 | 0.00 | 0.00 | 0.00 | 72 | 1012.8 |
| 20260510003634 | 55 | 204 | 0.0 | 0.9 | 0.00 | 0.00 | 0.00 | 72 | 1012.8 |
| 20260510003130 | 56 | 119 | 0.0 | 0.9 | 0.00 | 0.00 | 0.00 | 70 | 1012.7 |
| 20260510002629 | 56 | 93 | 0.0 | 0.9 | 0.00 | 0.00 | 0.00 | 68 | 1012.6 |
| 20260510002127 | 56 | 117 | 0.0 | 0.0 | 0.00 | 0.00 | 0.00 | 71 | 1012.6 |
| 20260510001623 | 56 | 145 | 0.0 | 0.0 | 0.00 | 0.00 | 0.00 | 68 | 1012.5 |
| 20260510001122 | 56 | 108 | 0.9 | 1.7 | 0.00 | 0.00 | 0.00 | 68 | 1012.3 |
| 20260510000622 | 58 | 141 | 0.0 | 0.0 | 0.00 | 0.00 | 0.00 | 68 | 1012.4 |
| 20260510000120 | 58 | 112 | 0.0 | 0.0 | 0.00 | 0.00 | 0.00 | 65 | 1012.3 |
| 20260509235616 | 59 | 137 | 0.0 | 0.0 | 0.00 | 0.00 | 0.00 | 62 | 1012.3 |
| 20260509235113 | 59 | 116 | 0.0 | 0.9 | 0.00 | 0.00 | 0.00 | 63 | 1012.3 |
| 20260509234609 | 60 | 159 | 0.0 | 0.0 | 0.00 | 0.00 | 0.00 | 59 | 1012.1 |
| 20260509234107 | 60 | 130 | 0.0 | 1.7 | 0.00 | 0.00 | 0.00 | 60 | 1012.1 |
| 20260509233604 | 62 | 209 | 0.9 | 1.7 | 0.00 | 0.00 | 0.00 | 58 | 1012.1 |
| 20260509233101 | 63 | 219 | 0.0 | 1.7 | 0.00 | 0.00 | 0.00 | 55 | 1012.2 |
| 20260509232557 | 64 | 290 | 0.9 | 2.6 | 0.00 | 0.00 | 0.00 | 50 | 1012.1 |
| 20260509232055 | 64 | 207 | 2.6 | 2.6 | 0.00 | 0.00 | 0.00 | 51 | 1012.2 |
| 20260509231551 | 66 | 290 | 2.6 | 3.5 | 0.00 | 0.00 | 0.00 | 50 | 1012.3 |
| 20260509231049 | 67 | 248 | 2.6 | 5.2 | 0.00 | 0.00 | 0.00 | 45 | 1012.4 |
| 20260509230545 | 67 | 203 | 3.5 | 6.1 | 0.00 | 0.00 | 0.00 | 45 | 1012.3 |
| 20260509230043 | 68 | 230 | 1.7 | 3.5 | 0.00 | 0.00 | 0.00 | 46 | 1012.4 |
| 20260509225538 | 68 | 137 | 1.7 | 6.1 | 0.00 | 0.00 | 0.00 | 47 | 1012.3 |
| 20260509225033 | 68 | 134 | 3.5 | 7.0 | 0.00 | 0.00 | 0.00 | 44 | 1012.5 |
| 20260509224529 | 67 | 177 | 5.2 | 7.0 | 0.00 | 0.00 | 0.00 | 45 | 1012.3 |
| 20260509224026 | 67 | 99 | 4.3 | 13.0 | 0.00 | 0.00 | 0.00 | 45 | 1012.1 |
| 20260509223523 | 68 | 187 | 0.9 | 2.6 | 0.00 | 0.00 | 0.00 | 47 | 1012.4 |
| 20260509223021 | 67 | 216 | 1.7 | 5.2 | 0.00 | 0.00 | 0.00 | 49 | 1012.3 |
| 20260509222517 | 67 | 206 | 4.3 | 7.0 | 0.00 | 0.00 | 0.00 | 49 | 1012.2 |
| 20260509222012 | 67 | 185 | 4.3 | 6.1 | 0.00 | 0.00 | 0.00 | 46 | 1012.2 |
| 20260509221509 | 68 | 214 | 2.6 | 5.2 | 0.00 | 0.00 | 0.00 | 47 | 1012.4 |
| 20260509221004 | 67 | 269 | 3.5 | 3.5 | 0.00 | 0.00 | 0.00 | 48 | 1012.3 |
| 20260509220501 | 67 | 217 | 6.1 | 8.7 | 0.00 | 0.00 | 0.00 | 47 | 1012.2 |
| 20260509215957 | 68 | 185 | 5.2 | 6.1 | 0.00 | 0.00 | 0.00 | 45 | 1012.0 |
| 20260509215452 | 68 | 189 | 2.6 | 2.6 | 0.00 | 0.00 | 0.00 | 44 | 1012.2 |
| 20260509214950 | 67 | 195 | 1.7 | 2.6 | 0.00 | 0.00 | 0.00 | 43 | 1011.9 |
| 20260509214447 | 68 | 283 | 0.9 | 6.1 | 0.00 | 0.00 | 0.00 | 46 | 1012.0 |
| 20260509213944 | 67 | 195 | 4.3 | 7.8 | 0.00 | 0.00 | 0.00 | 47 | 1012.1 |
| 20260509213440 | 69 | 264 | 3.5 | 5.2 | 0.00 | 0.00 | 0.00 | 44 | 1012.0 |
| 20260509212937 | 69 | 168 | 2.6 | 5.2 | 0.00 | 0.00 | 0.00 | 41 | 1011.8 |
| 20260509212435 | 68 | 230 | 3.5 | 3.5 | 0.00 | 0.00 | 0.00 | 43 | 1011.6 |
| 20260509211930 | 69 | 278 | 1.7 | 5.2 | 0.00 | 0.00 | 0.00 | 41 | 1011.6 |
| 20260509211426 | 70 | 258 | 4.3 | 6.1 | 0.00 | 0.00 | 0.00 | 41 | 1011.7 |
| 20260509210923 | 69 | 170 | 4.3 | 7.0 | 0.00 | 0.00 | 0.00 | 42 | 1011.4 |
| 20260509210420 | 69 | 214 | 3.5 | 5.2 | 0.00 | 0.00 | 0.00 | 44 | 1011.2 |
| 20260509205915 | 71 | 203 | 0.9 | 6.1 | 0.00 | 0.00 | 0.00 | 43 | 1011.5 |
| 20260509205415 | 69 | 224 | 5.2 | 7.0 | 0.00 | 0.00 | 0.00 | 41 | 1011.2 |
| 20260509204911 | 68 | 209 | 1.7 | 8.7 | 0.00 | 0.00 | 0.00 | 43 | 1011.2 |
| 20260509204408 | 67 | 233 | 4.3 | 9.6 | 0.00 | 0.00 | 0.00 | 40 | 1011.1 |
| 20260509203904 | 67 | 168 | 6.1 | 7.8 | 0.00 | 0.00 | 0.00 | 40 | 1010.9 |
| 20260509203401 | 68 | 195 | 1.7 | 5.2 | 0.00 | 0.00 | 0.00 | 43 | 1011.0 |
| 20260509202858 | 68 | 193 | 6.1 | 7.0 | 0.00 | 0.00 | 0.00 | 40 | 1010.9 |
| 20260509202354 | 68 | 211 | 3.5 | 9.6 | 0.00 | 0.00 | 0.00 | 40 | 1010.9 |
| 20260509201849 | 69 | 176 | 5.2 | 12.2 | 0.00 | 0.00 | 0.00 | 39 | 1010.9 |
| 20260509201345 | 69 | 278 | 5.2 | 7.8 | 0.00 | 0.00 | 0.00 | 37 | 1010.9 |
| 20260509200842 | 70 | 170 | 8.7 | 11.3 | 0.00 | 0.00 | 0.00 | 39 | 1010.9 |
| 20260509200336 | 70 | 233 | 2.6 | 3.5 | 0.00 | 0.00 | 0.00 | 39 | 1010.9 |
| 20260509195834 | 70 | 156 | 7.0 | 11.3 | 0.00 | 0.00 | 0.00 | 38 | 1011.1 |
| 20260509195333 | 69 | 183 | 9.6 | 13.0 | 0.00 | 0.00 | 0.00 | 39 | 1010.9 |
| 20260509194828 | 69 | 217 | 3.5 | 7.0 | 0.00 | 0.00 | 0.00 | 39 | 1010.9 |
| 20260509194324 | 69 | 241 | 5.2 | 8.7 | 0.00 | 0.00 | 0.00 | 42 | 1011.1 |
| 20260509193821 | 69 | 203 | 2.6 | 7.0 | 0.00 | 0.00 | 0.00 | 41 | 1011.0 |
| 20260509193321 | 69 | 206 | 7.0 | 11.3 | 0.00 | 0.00 | 0.00 | 40 | 1010.9 |
| 20260509192817 | 68 | 225 | 2.6 | 5.2 | 0.00 | 0.00 | 0.00 | 43 | 1011.0 |
| 20260509192313 | 68 | 288 | 2.6 | 7.8 | 0.00 | 0.00 | 0.00 | 40 | 1010.9 |
| 20260509191808 | 68 | 215 | 2.6 | 5.2 | 0.00 | 0.00 | 0.00 | 46 | 1011.0 |
| 20260509191305 | 69 | 144 | 6.1 | 9.6 | 0.00 | 0.00 | 0.00 | 40 | 1011.4 |
| 20260509190800 | 70 | 215 | 1.7 | 3.5 | 0.00 | 0.00 | 0.00 | 45 | 1011.4 |
| 20260509190258 | 69 | 58 | 0.0 | 3.5 | 0.00 | 0.00 | 0.00 | 40 | 1011.1 |
| 20260509185755 | 67 | 227 | 1.7 | 5.2 | 0.00 | 0.00 | 0.00 | 47 | 1011.4 |
| 20260509185251 | 67 | 206 | 3.5 | 7.0 | 0.00 | 0.00 | 0.00 | 49 | 1011.4 |
| 20260509184749 | 67 | 209 | 1.7 | 6.1 | 0.00 | 0.00 | 0.00 | 41 | 1011.4 |
| 20260509184246 | 67 | 229 | 3.5 | 6.1 | 0.00 | 0.00 | 0.00 | 45 | 1011.2 |
| 20260509183742 | 69 | 179 | 5.2 | 6.1 | 0.00 | 0.00 | 0.00 | 47 | 1011.2 |
| 20260509183238 | 70 | 263 | 4.3 | 8.7 | 0.00 | 0.00 | 0.00 | 44 | 1011.4 |
| 20260509182734 | 69 | 272 | 2.6 | 11.3 | 0.00 | 0.00 | 0.00 | 43 | 1011.4 |
| 20260509182231 | 68 | 6 | 2.6 | 7.8 | 0.00 | 0.00 | 0.00 | 45 | 1011.5 |
| 20260509181728 | 70 | 222 | 5.2 | 11.3 | 0.00 | 0.00 | 0.00 | 48 | 1011.4 |
| 20260509181225 | 69 | 156 | 2.6 | 3.5 | 0.00 | 0.00 | 0.00 | 45 | 1011.7 |
| 20260509180722 | 67 | 241 | 0.9 | 6.1 | 0.00 | 0.00 | 0.00 | 51 | 1011.8 |
| 20260509180219 | 67 | 307 | 1.7 | 2.6 | 0.00 | 0.00 | 0.00 | 46 | 1011.9 |
| 20260509175715 | 67 | 181 | 3.5 | 6.1 | 0.00 | 0.00 | 0.00 | 45 | 1011.8 |
| 20260509175212 | 67 | 234 | 2.6 | 6.1 | 0.00 | 0.00 | 0.00 | 51 | 1011.8 |
| 20260509174707 | 67 | 220 | 4.3 | 8.7 | 0.00 | 0.00 | 0.00 | 49 | 1011.8 |
| 20260509174202 | 67 | 271 | 1.7 | 5.2 | 0.00 | 0.00 | 0.00 | 52 | 1012.1 |
| 20260509173659 | 67 | 181 | 2.6 | 2.6 | 0.00 | 0.00 | 0.00 | 53 | 1012.1 |
| 20260509173155 | 66 | 214 | 0.9 | 2.6 | 0.00 | 0.00 | 0.00 | 49 | 1012.2 |
| 20260509172651 | 65 | 348 | 1.7 | 1.7 | 0.00 | 0.00 | 0.00 | 53 | 1012.3 |
| 20260509172147 | 65 | 356 | 0.9 | 1.7 | 0.00 | 0.00 | 0.00 | 50 | 1012.4 |
| 20260509171643 | 65 | 22 | 0.9 | 1.7 | 0.00 | 0.00 | 0.00 | 51 | 1012.4 |
| 20260509171140 | 65 | 279 | 1.7 | 2.6 | 0.00 | 0.00 | 0.00 | 50 | 1012.4 |
| 20260509170636 | 64 | 355 | 0.9 | 1.7 | 0.00 | 0.00 | 0.00 | 55 | 1012.6 |
| 20260509170132 | 65 | 324 | 0.0 | 0.0 | 0.00 | 0.00 | 0.00 | 49 | 1012.8 |
| 20260509165631 | 64 | 104 | 0.0 | 1.7 | 0.00 | 0.00 | 0.00 | 50 | 1012.6 |
| 20260509165127 | 63 | 13 | 0.9 | 1.7 | 0.00 | 0.00 | 0.00 | 57 | 1012.5 |
| 20260509164623 | 62 | 36 | 1.7 | 3.5 | 0.00 | 0.00 | 0.00 | 54 | 1012.6 |
| 20260509164119 | 62 | 25 | 1.7 | 2.6 | 0.00 | 0.00 | 0.00 | 53 | 1012.6 |
| 20260509163617 | 62 | 48 | 3.5 | 3.5 | 0.00 | 0.00 | 0.00 | 54 | 1012.6 |
| 20260509163112 | 62 | 57 | 0.9 | 3.5 | 0.00 | 0.00 | 0.00 | 54 | 1012.7 |
| 20260509162610 | 61 | 45 | 0.0 | 0.0 | 0.00 | 0.00 | 0.00 | 55 | 1012.8 |